GW5341 Weather Reports


time (UTC)temp
C
wind
direction
speed
KPH
gust
KPH
rain 1hr
cm
rain 24hr
cm
rain mn
cm
humidity
%
barometer
mb
20260508075006 6 238 0.0 0.0 0.00 0.00 0.00 61 1019.2
20260508074521 6 353 0.0 0.0 0.00 0.00 0.00 60 1019.3
20260508074005 6 353 0.0 0.0 0.00 0.00 0.00 60 1019.3
20260508073507 6 73 0.0 0.0 0.00 0.00 0.00 60 1019.4
20260508073026 6 75 0.0 0.0 0.00 0.00 0.00 60 1019.5
20260508072506 6 330 0.0 0.0 0.00 0.00 0.00 59 1019.6
20260508072008 6 313 0.0 0.0 0.00 0.00 0.00 58 1019.6
20260508071524 7 313 0.0 3.2 0.00 0.00 0.00 58 1019.5
20260508071008 7 312 0.0 11.3 0.00 0.00 0.00 58 1019.6
20260508070506 7 10 3.2 17.7 0.00 0.00 0.00 58 1019.7
20260508070008 7 302 9.7 22.5 0.00 0.00 0.00 57 1019.7
20260508065504 7 289 11.3 32.2 0.00 0.00 0.00 57 1019.6
20260508065003 7 292 19.3 33.8 0.00 0.00 0.00 57 1020.0
20260508064512 6 321 12.9 33.8 0.00 0.00 0.00 61 1020.0
20260508064011 6 269 0.0 4.8 0.00 0.00 0.00 61 1019.5
20260508063504 6 220 0.0 0.0 0.00 0.00 0.00 60 1019.4
20260508063020 6 259 0.0 0.0 0.00 0.00 0.00 60 1019.4
20260508062506 6 259 0.0 0.0 0.00 0.00 0.00 59 1019.5
20260508062009 6 300 0.0 0.0 0.00 0.00 0.00 59 1019.5
20260508061523 7 300 0.0 0.0 0.00 0.00 0.00 59 1019.5
20260508061007 7 288 0.0 6.4 0.00 0.00 0.00 58 1019.4
20260508060509 7 294 0.0 9.7 0.00 0.00 0.00 58 1019.3
20260508060025 7 304 3.2 9.7 0.00 0.00 0.00 58 1019.3
20260508055505 7 292 6.4 11.3 0.00 0.00 0.00 58 1019.3
20260508055008 7 290 4.8 11.3 0.00 0.00 0.00 60 1019.4
20260508054511 7 295 6.4 9.7 0.00 0.00 0.00 60 1019.4
20260508054003 7 280 1.6 8.0 0.00 0.00 0.00 60 1019.3
20260508053503 7 288 3.2 8.0 0.00 0.00 0.00 60 1019.3
20260508053016 7 297 3.2 6.4 0.00 0.00 0.00 61 1019.4
20260508052507 6 313 0.0 6.4 0.00 0.00 0.00 62 1019.4
20260508052003 6 321 0.0 6.4 0.00 0.00 0.00 63 1019.5
20260508051520 6 321 3.2 6.4 0.00 0.00 0.00 63 1019.5
20260508051006 6 323 0.0 4.8 0.00 0.00 0.00 65 1019.5
20260508050506 6 13 0.0 4.8 0.00 0.00 0.00 65 1019.4
20260508050034 6 64 0.0 3.2 0.00 0.00 0.00 68 1019.5
20260508045506 6 282 0.0 6.4 0.00 0.00 0.00 70 1019.4
20260508045006 6 78 0.0 8.0 0.00 0.00 0.00 70 1019.3
20260508044527 5 48 3.2 8.0 0.00 0.00 0.00 74 1019.3
20260508044009 5 46 3.2 6.4 0.00 0.00 0.00 79 1019.3
20260508043509 5 209 0.0 4.8 0.00 0.00 0.00 78 1019.3
20260508043031 5 229 1.6 4.8 0.00 0.00 0.00 79 1019.1
20260508042504 5 199 0.0 0.0 0.00 0.00 0.00 79 1019.1
20260508042006 5 212 0.0 0.0 0.00 0.00 0.00 80 1019.2
20260508041517 5 140 0.0 0.0 0.00 0.00 0.00 79 1019.0
20260508041006 5 223 0.0 0.0 0.00 0.00 0.00 78 1019.2
20260508040509 5 261 0.0 0.0 0.00 0.00 0.00 77 1019.2
20260508040033 5 240 0.0 0.0 0.00 0.00 0.00 78 1019.2
20260508035506 5 198 0.0 0.0 0.00 0.00 0.00 78 1019.2
20260508035007 5 297 0.0 4.8 0.00 0.00 0.00 78 1019.2
20260508034525 5 301 0.0 4.8 0.00 0.00 0.00 77 1019.3
20260508034008 6 76 0.0 6.4 0.00 0.00 0.00 76 1019.2
20260508033010 6 326 0.0 4.8 0.00 0.00 0.00 72 1019.1
20260508032503 6 24 0.0 4.8 0.00 0.00 0.00 69 1018.9
20260508032003 6 200 0.0 8.0 0.00 0.00 0.00 71 1018.9
20260508031512 6 187 0.0 9.7 0.00 0.00 0.00 69 1018.8
20260508031004 6 92 6.4 11.3 0.00 0.00 0.00 69 1018.7
20260508030503 6 210 1.6 14.5 0.00 0.00 0.00 69 1018.7
20260508030021 6 91 11.3 16.1 0.00 0.00 0.00 71 1018.5
20260508025506 6 89 9.7 16.1 0.00 0.00 0.00 70 1018.4
20260508025006 6 122 11.3 19.3 0.00 0.00 0.00 70 1018.4
20260508024504 6 101 12.9 19.3 0.00 0.00 0.00 70 1018.4
20260508024003 6 104 14.5 19.3 0.00 0.00 0.00 68 1018.3
20260508023503 7 101 4.8 8.0 0.00 0.00 0.00 65 1018.4
20260508023006 7 153 1.6 6.4 0.00 0.00 0.00 65 1018.3
20260508022508 7 152 3.2 8.0 0.00 0.00 0.00 67 1018.3
20260508022004 7 146 3.2 8.0 0.00 0.00 0.00 67 1018.3
20260508021508 7 146 1.6 9.7 0.00 0.00 0.00 67 1018.3
20260508021004 7 139 1.6 9.7 0.00 0.00 0.00 67 1018.2
20260508020502 6 142 3.2 11.3 0.00 0.00 0.00 69 1018.3
20260508020026 6 163 4.8 19.3 0.00 0.00 0.00 69 1018.2
20260508015503 6 110 12.9 19.3 0.00 0.00 0.00 68 1018.1
20260508015003 6 125 11.3 17.7 0.00 0.00 0.00 69 1018.2
20260508014522 6 126 8.0 17.7 0.00 0.00 0.00 70 1018.3
20260508014008 6 158 8.0 14.5 0.00 0.00 0.00 70 1018.2
20260508013506 6 133 8.0 11.3 0.00 0.00 0.00 71 1018.2
20260508013023 7 144 3.2 16.1 0.00 0.00 0.00 71 1018.1
20260508012506 7 207 4.8 17.7 0.00 0.00 0.00 71 1018.2
20260508012003 7 263 11.3 33.8 0.00 0.00 0.00 67 1018.4
20260508011504 7 243 12.9 33.8 0.00 0.00 0.00 65 1018.7
20260508011004 8 266 14.5 24.1 0.00 0.00 0.00 56 1018.9
20260508010503 9 266 14.5 24.1 0.00 0.00 0.00 52 1018.5
20260508010011 9 262 14.5 29.0 0.00 0.00 0.00 51 1018.2
20260508005505 10 267 12.9 29.0 0.00 0.00 0.00 51 1018.2
20260508005007 10 306 8.0 19.3 0.00 0.00 0.00 49 1018.2
20260508004514 10 283 9.7 20.9 0.00 0.00 0.00 48 1018.2
20260508004005 10 289 14.5 20.9 0.00 0.00 0.00 47 1018.2
20260508003503 10 306 12.9 19.3 0.00 0.00 0.00 46 1018.0
20260508003019 11 302 11.3 20.9 0.00 0.00 0.00 47 1018.1
20260508002507 10 292 11.3 27.4 0.00 0.00 0.00 49 1018.2
20260508002010 10 276 14.5 27.4 0.00 0.00 0.00 51 1018.1
20260508001538 10 265 17.7 24.1 0.00 0.00 0.00 50 1018.2
20260508001003 10 285 17.7 54.7 0.00 0.00 0.00 50 1018.1
20260508000507 10 293 19.3 54.7 0.00 0.00 0.00 52 1018.2
20260508000007 11 289 29.0 49.9 0.00 0.00 0.00 45 1018.0
20260507235504 11 298 20.9 32.2 0.00 0.00 0.00 37 1017.5
20260507235006 12 300 20.9 30.6 0.00 0.00 0.00 38 1017.2
20260507234515 12 283 12.9 22.5 0.00 0.00 0.00 37 1017.0
20260507234051 12 295 11.3 25.7 0.00 0.00 0.00 41 1017.0
20260507233503 12 306 12.9 25.7 0.00 0.00 0.00 40 1017.0
20260507233018 12 305 12.9 25.7 0.00 0.00 0.00 40 1017.1
20260507232504 12 273 9.7 25.7 0.00 0.00 0.00 40 1017.2
20260507232007 12 285 16.1 27.4 0.00 0.00 0.00 38 1017.3
20260507231524 12 315 8.0 27.4 0.00 0.00 0.00 41 1017.3
20260507231007 13 269 11.3 22.5 0.00 0.00 0.00 40 1017.3
20260507230507 13 293 11.3 22.5 0.00 0.00 0.00 38 1017.3
20260507230027 13 295 12.9 25.7 0.00 0.00 0.00 38 1017.4
20260507225510 13 276 14.5 27.4 0.00 0.00 0.00 40 1017.6
20260507225003 12 296 16.1 27.4 0.00 0.00 0.00 41 1017.6
20260507224507 11 303 12.9 24.1 0.00 0.00 0.00 40 1017.6
20260507224007 12 285 16.1 27.4 0.00 0.00 0.00 39 1017.6
20260507223506 12 285 14.5 27.4 0.00 0.00 0.00 38 1017.8
20260507223012 13 268 17.7 30.6 0.00 0.00 0.00 36 1017.6
20260507222502 12 285 20.9 35.4 0.00 0.00 0.00 37 1017.6
20260507222006 13 293 24.1 37.0 0.00 0.00 0.00 36 1017.8
20260507221516 13 300 22.5 37.0 0.00 0.00 0.00 35 1017.9
20260507221007 13 283 16.1 37.0 0.00 0.00 0.00 38 1017.9
20260507220508 13 309 20.9 40.2 0.00 0.00 0.00 37 1017.8
20260507220037 13 297 25.7 40.2 0.00 0.00 0.00 35 1018.0
20260507215508 13 300 24.1 37.0 0.00 0.00 0.00 34 1018.0
20260507215010 13 287 24.1 37.0 0.00 0.00 0.00 34 1018.0
20260507214530 13 281 22.5 40.2 0.00 0.00 0.00 38 1018.0
20260507214007 13 297 16.1 40.2 0.00 0.00 0.00 36 1018.1
20260507213503 13 314 11.3 29.0 0.00 0.00 0.00 36 1018.2
20260507213010 13 270 11.3 29.0 0.00 0.00 0.00 35 1018.3
20260507212503 12 302 12.9 32.2 0.00 0.00 0.00 41 1018.5
20260507212004 12 288 12.9 33.8 0.00 0.00 0.00 41 1018.6
20260507211513 12 309 24.1 33.8 0.00 0.00 0.00 40 1018.7
20260507211006 12 274 22.5 33.8 0.00 0.00 0.00 40 1018.8
20260507210503 12 307 11.3 29.0 0.00 0.03 0.00 44 1018.8
20260507210020 12 296 19.3 29.0 0.00 0.03 0.00 41 1018.9
20260507205506 12 282 16.1 27.4 0.00 0.05 0.00 43 1019.1
20260507205007 12 299 16.1 32.2 0.00 0.05 0.00 42 1019.1
20260507204522 12 304 12.9 32.2 0.00 0.05 0.00 45 1019.2
20260507204013 12 293 22.5 38.6 0.00 0.05 0.00 42 1019.3
20260507203509 11 278 17.7 38.6 0.00 0.05 0.00 44 1019.5
20260507203032 11 288 19.3 37.0 0.00 0.05 0.00 42 1019.5
20260507202512 12 304 17.7 40.2 0.00 0.05 0.00 43 1019.5
20260507202007 12 296 20.9 40.2 0.00 0.05 0.00 42 1019.4
20260507201509 11 300 16.1 38.6 0.00 0.08 0.00 45 1019.7
20260507201005 11 336 20.9 38.6 0.00 0.08 0.00 44 1019.8
20260507200504 11 293 12.9 37.0 0.00 0.08 0.00 40 1019.8
20260507200019 11 295 19.3 33.8 0.00 0.08 0.00 42 1019.8
20260507195504 11 290 17.7 33.8 0.00 0.08 0.00 43 1020.0
20260507195005 11 280 11.3 35.4 0.00 0.08 0.00 46 1019.9
20260507194522 10 298 12.9 35.4 0.00 0.08 0.00 45 1019.9
20260507194007 10 280 19.3 32.2 0.00 0.08 0.00 45 1020.0
20260507193507 11 291 14.5 35.4 0.00 0.10 0.00 42 1020.1
20260507193028 11 269 9.7 35.4 0.00 0.10 0.00 45 1020.1
20260507192509 11 244 19.3 30.6 0.00 0.13 0.00 41 1020.1
20260507192007 11 283 16.1 27.4 0.00 0.15 0.00 45 1020.0
20260507191528 11 281 14.5 33.8 0.00 0.18 0.00 43 1020.1
20260507191009 11 292 17.7 33.8 0.00 0.20 0.00 43 1020.1
20260507190508 11 285 16.1 30.6 0.00 0.23 0.00 44 1020.2
20260507190028 11 260 16.1 30.6 0.00 0.23 0.00 41 1020.2
20260507185508 10 278 16.1 32.2 0.00 0.25 0.00 44 1020.4
20260507185006 11 283 14.5 35.4 0.00 0.28 0.00 43 1020.3
20260507184515 10 269 22.5 35.4 0.00 0.30 0.00 46 1020.4
20260507184010 10 288 25.7 40.2 0.00 0.36 0.00 42 1020.4
20260507183510 10 293 25.7 40.2 0.00 0.38 0.00 43 1020.4
20260507183023 10 286 12.9 35.4 0.00 0.43 0.00 44 1020.4
20260507182507 10 288 17.7 43.5 0.00 0.46 0.00 43 1020.4
20260507182009 10 264 22.5 43.5 0.00 0.51 0.00 45 1020.4
20260507181526 10 304 16.1 30.6 0.00 0.53 0.00 44 1020.4
20260507181003 9 287 14.5 37.0 0.00 0.56 0.00 45 1020.5
20260507180506 8 280 17.7 37.0 0.00 0.58 0.00 45 1020.6
20260507180009 8 290 8.0 27.4 0.00 0.58 0.00 45 1020.7
20260507175502 8 285 16.1 27.4 0.00 0.61 0.00 48 1020.8
20260507175003 8 285 16.1 25.7 0.00 0.61 0.00 46 1021.0
20260507174524 7 307 11.3 25.7 0.00 0.61 0.00 49 1021.0
20260507174008 7 266 9.7 27.4 0.00 0.61 0.00 52 1021.0
20260507173509 6 285 9.7 27.4 0.00 0.61 0.00 50 1021.2
20260507173022 6 276 9.7 17.7 0.00 0.61 0.00 48 1021.4
20260507172508 6 292 12.9 20.9 0.00 0.61 0.00 49 1021.4
20260507172007 6 261 12.9 20.9 0.00 0.61 0.00 49 1021.4
20260507171523 6 311 8.0 12.9 0.00 0.61 0.00 52 1021.4
20260507171008 6 310 3.2 6.4 0.00 0.61 0.00 50 1021.5
20260507170507 6 18 0.0 9.7 0.00 0.61 0.00 52 1021.6
20260507170040 6 335 1.6 11.3 0.00 0.61 0.00 51 1021.6
20260507165510 6 72 3.2 16.1 0.00 0.61 0.00 50 1021.6
20260507165003 6 115 0.0 16.1 0.00 0.61 0.00 51 1021.7
20260507164512 5 83 3.2 16.1 0.00 0.61 0.00 53 1021.7
20260507164005 5 311 3.2 11.3 0.00 0.61 0.00 49 1021.8
20260507163506 5 304 1.6 14.5 0.00 0.61 0.00 53 1021.9
20260507163014 5 335 4.8 16.1 0.00 0.61 0.00 51 1022.0
20260507162506 4 326 4.8 17.7 0.00 0.61 0.00 53 1022.1
20260507162006 4 330 11.3 17.7 0.00 0.61 0.00 52 1022.2
20260507161520 4 316 9.7 17.7 0.00 0.61 0.00 54 1022.3
20260507161005 4 336 9.7 14.5 0.00 0.61 0.00 52 1022.3
20260507160507 3 59 0.0 9.7 0.00 0.61 0.00 55 1022.2
20260507160026 3 79 3.2 12.9 0.00 0.61 0.00 51 1022.3
20260507155507 3 48 6.4 12.9 0.00 0.61 0.00 53 1022.3
20260507155009 2 345 3.2 8.0 0.00 0.61 0.00 58 1022.4
20260507154527 2 344 1.6 6.4 0.00 0.61 0.00 59 1022.3
20260507154009 2 61 1.6 4.8 0.00 0.61 0.00 58 1022.6
20260507153504 1 83 1.6 4.8 0.00 0.61 0.00 58 1022.5
20260507153010 1 334 0.0 4.8 0.00 0.61 0.00 60 1022.7
20260507152506 1 72 0.0 4.8 0.00 0.61 0.00 64 1022.9
20260507152010 1 350 0.0 6.4 0.00 0.61 0.00 61 1022.9
20260507151518 1 356 3.2 6.4 0.00 0.61 0.00 62 1023.0
20260507151007 1 321 0.0 4.8 0.00 0.61 0.00 65 1023.1
20260507150506 0 354 1.6 4.8 0.00 0.61 0.00 65 1023.2
20260507150029 0 310 0.0 1.6 0.00 0.61 0.00 69 1023.4
20260507145507 0 330 0.0 0.0 0.00 0.61 0.00 68 1023.4
20260507145007 0 86 0.0 3.2 0.00 0.61 0.00 70 1023.4
20260507144525 0 297 0.0 3.2 0.00 0.61 0.00 68 1023.4
20260507144010 0 308 0.0 3.2 0.00 0.61 0.00 69 1023.6
20260507143511 -1 305 0.0 3.2 0.00 0.61 0.00 72 1023.6
20260507143028 -1 278 0.0 0.0 0.00 0.61 0.00 72 1023.8
20260507142507 -1 355 0.0 0.0 0.00 0.61 0.00 73 1023.7
20260507142010 -1 38 0.0 3.2 0.00 0.61 0.00 76 1023.7
20260507141515 -2 101 0.0 4.8 0.00 0.61 0.00 77 1023.7
20260507141007 -2 59 0.0 4.8 0.00 0.61 0.00 76 1023.8
20260507140506 -2 301 0.0 6.4 0.00 0.61 0.00 78 1023.9
20260507140020 -2 335 0.0 6.4 0.00 0.61 0.00 79 1023.9
20260507135510 -3 297 4.8 6.4 0.00 0.61 0.00 80 1024.0
20260507135008 -3 313 0.0 3.2 0.00 0.61 0.00 80 1023.9
20260507134524 -3 71 0.0 0.0 0.00 0.61 0.00 78 1023.7
20260507134010 -3 87 0.0 0.0 0.00 0.61 0.00 76 1023.9
20260507133508 -2 82 0.0 0.0 0.00 0.61 0.00 79 1023.9
20260507133026 -3 78 0.0 0.0 0.00 0.61 0.00 79 1024.0
20260507132512 -3 80 0.0 0.0 0.00 0.61 0.00 81 1024.0
20260507132010 -4 108 0.0 0.0 0.00 0.61 0.00 85 1024.0
20260507131534 -5 160 0.0 0.0 0.00 0.61 0.00 86 1024.0
20260507131009 -5 260 0.0 0.0 0.00 0.61 0.00 85 1024.0
20260507130511 -6 61 0.0 0.0 0.00 0.61 0.00 87 1024.1
20260507130029 -6 61 0.0 0.0 0.00 0.61 0.00 88 1024.0
20260507125509 -6 61 0.0 0.0 0.00 0.61 0.00 88 1023.9
20260507125004 -7 61 0.0 0.0 0.00 0.61 0.00 88 1023.9
20260507124519 -7 61 0.0 0.0 0.00 0.61 0.00 87 1023.7
20260507124011 -7 288 0.0 0.0 0.00 0.61 0.00 87 1023.6
20260507123508 -7 283 0.0 0.0 0.00 0.61 0.00 87 1023.6
20260507123022 -7 194 0.0 0.0 0.00 0.61 0.00 87 1023.6
20260507122507 -7 194 0.0 0.0 0.00 0.61 0.00 88 1023.7
20260507122011 -7 194 0.0 0.0 0.00 0.61 0.00 87 1023.7
20260507121508 -7 194 0.0 0.0 0.00 0.61 0.00 88 1023.6
20260507121005 -7 193 0.0 0.0 0.00 0.61 0.00 89 1023.6
20260507120503 -7 193 0.0 0.0 0.00 0.61 0.00 88 1023.6
20260507120024 -7 195 0.0 0.0 0.00 0.61 0.00 87 1023.6
20260507115504 -7 214 0.0 0.0 0.00 0.61 0.00 87 1023.6
20260507115003 -7 214 0.0 0.0 0.00 0.61 0.00 87 1023.7
20260507114520 -6 234 0.0 0.0 0.00 0.61 0.00 89 1023.6
20260507114003 -7 207 0.0 0.0 0.00 0.61 0.00 89 1023.4
20260507113503 -7 201 0.0 0.0 0.00 0.61 0.00 88 1023.4
20260507113023 -6 119 0.0 0.0 0.00 0.61 0.00 88 1023.5
20260507112510 -6 118 0.0 0.0 0.00 0.61 0.00 88 1023.5
20260507112008 -6 118 0.0 0.0 0.00 0.61 0.00 88 1023.5
20260507111524 -6 118 0.0 0.0 0.00 0.61 0.00 88 1023.5
20260507111003 -6 118 0.0 0.0 0.00 0.61 0.00 88 1023.4
20260507110503 -6 217 0.0 0.0 0.00 0.61 0.00 87 1023.3
20260507110009 -6 217 0.0 0.0 0.00 0.61 0.00 87 1023.2
20260507105503 -6 217 0.0 0.0 0.00 0.61 0.00 86 1023.3
20260507105004 -6 217 0.0 0.0 0.00 0.61 0.00 86 1023.2
20260507104513 -6 198 0.0 0.0 0.00 0.61 0.00 86 1023.2
20260507104004 -6 214 0.0 1.6 0.00 0.61 0.00 88 1023.2
20260507103502 -6 214 0.0 1.6 0.00 0.61 0.00 86 1023.2
20260507103018 -6 210 0.0 0.0 0.00 0.61 0.00 87 1023.3
20260507102507 -6 210 0.0 0.0 0.00 0.61 0.00 87 1023.3
20260507102006 -6 274 0.0 0.0 0.00 0.61 0.00 87 1023.4
20260507101524 -6 274 0.0 0.0 0.00 0.61 0.00 87 1023.3
20260507101006 -6 274 0.0 0.0 0.00 0.61 0.00 88 1023.2
20260507100506 -6 185 0.0 0.0 0.00 0.61 0.00 87 1023.2
20260507100033 -6 148 0.0 0.0 0.00 0.61 0.00 87 1023.2
20260507095513 -6 148 0.0 0.0 0.00 0.61 0.00 87 1023.3
20260507095010 -6 148 0.0 0.0 0.00 0.61 0.00 87 1023.3
20260507094509 -6 148 0.0 0.0 0.00 0.61 0.00 87 1023.2
20260507094003 -6 148 0.0 0.0 0.00 0.61 0.00 86 1023.1
20260507093502 -6 148 0.0 0.0 0.00 0.61 0.00 86 1023.2
20260507093010 -6 221 0.0 0.0 0.00 0.61 0.00 86 1023.2
20260507092503 -5 221 0.0 0.0 0.00 0.61 0.00 85 1023.2
20260507092005 -5 221 0.0 0.0 0.00 0.61 0.00 86 1023.2
20260507091517 -5 221 0.0 0.0 0.00 0.61 0.00 85 1023.2
20260507091004 -5 221 0.0 0.0 0.00 0.61 0.00 84 1023.2
20260507090507 -5 221 0.0 0.0 0.00 0.61 0.00 84 1023.2
20260507090023 -5 221 0.0 0.0 0.00 0.61 0.00 84 1023.3
20260507085508 -5 214 0.0 0.0 0.00 0.61 0.00 85 1023.3
20260507085008 -5 214 0.0 0.0 0.00 0.61 0.00 85 1023.3
20260507084526 -5 214 0.0 0.0 0.00 0.61 0.00 84 1023.5
20260507084006 -5 234 0.0 0.0 0.00 0.61 0.00 83 1023.4
20260507083507 -5 82 0.0 0.0 0.00 0.61 0.00 81 1023.3
20260507083026 -5 126 0.0 0.0 0.00 0.61 0.00 80 1023.2
20260507082504 -4 126 0.0 0.0 0.00 0.61 0.00 81 1023.2
20260507082004 -4 126 0.0 0.0 0.00 0.61 0.00 81 1023.3
20260507081530 -4 126 0.0 0.0 0.00 0.61 0.00 81 1023.3
20260507081005 -4 126 0.0 0.0 0.00 0.61 0.00 81 1023.4
20260507080503 -4 126 0.0 0.0 0.00 0.61 0.00 81 1023.4
20260507080021 -4 125 0.0 0.0 0.00 0.61 0.00 80 1023.4
20260507075509 -4 261 0.0 0.0 0.00 0.61 0.00 79 1023.2